Weather reports worldwide

Advertisment
Cervia, Italy (16148): temperature & dewpoint: 20.03.2019 20:00:00 - 26.03.2019 20:00:00 (CET)Cervia, Italy (16148): wind speed: 20.03.2019 20:00:00 - 26.03.2019 20:00:00 (CET)Cervia, Italy (16148): wind direction: 20.03.2019 20:00:00 - 26.03.2019 20:00:00 (CET)Cervia, Italy (16148): reduced air pressure: 20.03.2019 20:00:00 - 26.03.2019 20:00:00 (CET)Cervia, Italy (16148): visibility: 20.03.2019 20:00:00 - 26.03.2019 20:00:00 (CET)Cervia, Italy (16148): sunshine duration: 20.03.2019 20:00:00 - 26.03.2019 20:00:00 (CET)
Date & Time tt [°C] td [°C] ff [km/h] ff [kn] dd ppp [hPa] vv [km] sd [min]
26.03.2019 20:00:00 8,0 5,0 2 1 - - 10 -
26.03.2019 19:00:00 9,0 4,8 5 3 N 1021,4 20 -
26.03.2019 18:00:00 10,0 4,0 11 6 ENE - 10 -
26.03.2019 17:00:00 11,0 3,0 9 5 ENE - 10 -
26.03.2019 16:00:00 11,8 3,6 13 7 ENE 1020,8 20 60
26.03.2019 15:00:00 12,0 4,0 13 7 ENE - 10 -
26.03.2019 14:00:00 13,0 4,0 18 10 NE - 10 -
26.03.2019 13:00:00 12,6 4,6 24 13 ENE 1021,1 16 60
26.03.2019 12:00:00 12,0 3,0 21 11 NE - 10 -
26.03.2019 11:00:00 11,0 5,0 24 13 NE - 10 -
26.03.2019 10:00:00 11,0 4,7 24 13 NE 1020,5 16 48
26.03.2019 09:00:00 8,0 7,0 16 9 NW - 10 -
26.03.2019 08:00:00 7,0 5,0 18 10 WNW - 10 -
26.03.2019 07:00:00 8,0 3,3 22 12 NE 1019,5 10 0
26.03.2019 06:00:00 7,0 4,0 16 9 ENE - 10 -
26.03.2019 05:00:00 6,0 5,0 22 12 NE - 10 -
26.03.2019 04:00:00 6,0 5,1 37 20 NE 1020,1 5 -
26.03.2019 03:00:00 6,0 5,0 44 24 NE - 3,0 -
26.03.2019 02:00:00 6,0 6,0 57 31 NE - 5 -
26.03.2019 01:00:00 8,0 8,0 44 24 NNE 1015,9 8 -
26.03.2019 00:00:00 9,0 8,0 48 26 NNE - 6 -
25.03.2019 23:00:00 12,0 8,0 35 19 N - 10 -
25.03.2019 22:00:00 13,0 5,4 4 2 SW 1006,9 20 -
25.03.2019 21:00:00 12,0 4,0 2 1 N - 10 -
25.03.2019 20:00:00 15,0 4,0 8 4 S - 10 -
25.03.2019 19:00:00 16,0 5,6 5 3 SSE 1006,6 20 -
25.03.2019 18:00:00 18,0 6,0 15 8 SE - 10 -
25.03.2019 17:00:00 19,0 6,0 16 9 ESE - 10 -
25.03.2019 16:00:00 20,0 6,7 15 8 ESE 1008,0 20 60
25.03.2019 15:00:00 20,0 7,0 13 7 E - 10 -
25.03.2019 14:00:00 20,0 7,0 11 6 E - 10 -
25.03.2019 13:00:00 21,0 6,9 15 8 ENE 1010,5 20 60
25.03.2019 12:00:00 22,0 4,0 8 4 ENE - 10 -
25.03.2019 11:00:00 20,0 6,0 13 7 W - 10 -
25.03.2019 10:00:00 15,0 4,7 11 6 W 1013,1 20 60
25.03.2019 09:00:00 11,0 7,0 4 2 N - 10 -
25.03.2019 08:00:00 10,0 7,0 4 2 NNW - 10 -
25.03.2019 07:00:00 6,0 5,0 2 1 E 1013,9 15 0
25.03.2019 06:00:00 6,0 5,0 5 3 NNW - 10 -
25.03.2019 05:00:00 8,0 6,0 11 6 SSW - 10 -
25.03.2019 04:00:00 7,6 5,6 13 7 SSW 1014,9 15 -
25.03.2019 03:00:00 9,0 7,0 5 3 WSW - 10 -
25.03.2019 02:00:00 8,0 6,0 4 2 SSW - 10 -
25.03.2019 01:00:00 9,0 6,4 4 2 WNW 1016,2 15 -
25.03.2019 00:00:00 9,0 6,0 2 1 S - 10 -
24.03.2019 23:00:00 10,0 6,0 4 2 S - 10 -
24.03.2019 22:00:00 11,8 7,3 9 5 SSW 1017,1 15 -
24.03.2019 21:00:00 12,0 7,0 9 5 S - 10 -
24.03.2019 20:00:00 13,0 6,0 8 4 S - 10 -
24.03.2019 19:00:00 16,0 7,2 11 6 SE 1017,8 20 -
24.03.2019 18:00:00 18,0 7,0 9 5 SE - 10 -
24.03.2019 17:00:00 19,0 7,0 15 8 SE - 10 -
24.03.2019 16:00:00 20,0 8,7 13 7 E 1018,4 20 60
24.03.2019 15:00:00 21,0 8,0 13 7 ENE - 10 -
24.03.2019 14:00:00 21,0 5,0 8 4 NNW - 10 -
24.03.2019 13:00:00 21,0 6,2 11 6 NW 1021,2 20 60
24.03.2019 12:00:00 20,0 7,0 13 7 WNW - 10 -
24.03.2019 11:00:00 18,0 7,0 18 10 WNW - 10 -
24.03.2019 10:00:00 16,8 7,2 18 10 WNW 1022,6 20 60
24.03.2019 09:00:00 14,0 8,0 11 6 W - 10 -
24.03.2019 08:00:00 10,0 6,0 11 6 WSW - 10 -
24.03.2019 07:00:00 5,4 4,7 9 5 W 1022,4 20 0
24.03.2019 06:00:00 5,0 4,0 9 5 WNW - 10 -
24.03.2019 05:00:00 5,0 4,0 9 5 WNW - 10 -
24.03.2019 04:00:00 7,5 5,1 8 4 WSW 1022,6 20 -
24.03.2019 03:00:00 7,0 5,0 11 6 WSW - 10 -
24.03.2019 02:00:00 7,0 5,0 8 4 WNW - 10 -
24.03.2019 01:00:00 7,3 5,0 5 3 WNW 1023,6 20 -
24.03.2019 00:00:00 7,0 4,0 4 2 WNW - 10 -
23.03.2019 23:00:00 8,0 4,0 2 1 W - 10 -
23.03.2019 22:00:00 10,0 5,4 11 6 SW 1023,6 20 -
23.03.2019 21:00:00 10,0 4,0 5 3 WSW - 10 -
23.03.2019 20:00:00 11,0 2,0 4 2 SSE - 10 -
23.03.2019 19:00:00 14,2 0,8 4 2 SE 1023,4 15 -
23.03.2019 18:00:00 16,0 1,0 8 4 ESE - 10 -
23.03.2019 17:00:00 18,0 1,0 9 5 E - 10 -
23.03.2019 16:00:00 18,0 1,5 11 6 E 1023,6 15 60
23.03.2019 15:00:00 18,0 2,0 13 7 ENE - 10 -
23.03.2019 14:00:00 18,0 3,0 11 6 ENE - 10 -
23.03.2019 13:00:00 18,0 4,9 11 6 ENE 1025,2 12 60
23.03.2019 12:00:00 17,0 4,0 9 5 NW - 10 -
23.03.2019 11:00:00 16,0 5,0 15 8 NW - 10 -
23.03.2019 10:00:00 13,0 3,7 18 10 NW 1026,2 15 60
23.03.2019 09:00:00 12,0 2,0 18 10 WNW - 10 -
23.03.2019 08:00:00 8,0 5,0 9 5 W - 10 -
23.03.2019 07:00:00 4,0 2,7 9 5 W 1025,7 12 0
23.03.2019 06:00:00 3,0 2,0 8 4 W - 10 -
23.03.2019 05:00:00 4,0 3,0 8 4 W - 10 -
23.03.2019 04:00:00 4,0 2,5 8 4 W 1025,8 16 -
23.03.2019 03:00:00 5,0 4,0 9 5 W - 10 -
23.03.2019 02:00:00 5,0 4,0 9 5 WSW - 10 -
23.03.2019 01:00:00 5,0 3,5 9 5 WSW 1026,9 16 -
23.03.2019 00:00:00 5,0 3,0 5 3 W - 10 -
22.03.2019 23:00:00 6,0 4,0 9 5 SW - 10 -
22.03.2019 22:00:00 6,6 3,4 4 2 W 1027,8 16 -
22.03.2019 21:00:00 7,0 4,0 4 2 W - 10 -
22.03.2019 20:00:00 9,0 4,0 4 2 SSW - 10 -
22.03.2019 19:00:00 12,0 4,5 4 2 ENE 1027,2 20 -
22.03.2019 18:00:00 13,0 3,0 5 3 E - 10 -
22.03.2019 17:00:00 15,0 5,0 9 5 ENE - 10 -
22.03.2019 16:00:00 16,0 3,8 13 7 E 1028,1 20 60
22.03.2019 15:00:00 16,0 5,0 11 6 NE - 10 -
22.03.2019 14:00:00 16,0 3,0 11 6 NE - 10 -
22.03.2019 13:00:00 15,3 2,8 5 3 N 1030,0 20 60
22.03.2019 12:00:00 15,0 4,0 11 6 WNW - 10 -
22.03.2019 11:00:00 13,0 4,0 15 8 NW - 10 -
22.03.2019 10:00:00 12,0 4,0 15 8 W 1031,2 20 60
22.03.2019 09:00:00 10,0 3,0 16 9 WNW - 10 -
22.03.2019 08:00:00 5,0 1,0 13 7 W - 10 -
22.03.2019 07:00:00 3,0 1,5 11 6 WSW 1030,6 20 0
22.03.2019 06:00:00 3,0 1,0 9 5 WSW - 10 -
22.03.2019 05:00:00 3,0 1,0 5 3 W - 10 -
22.03.2019 04:00:00 3,0 1,2 8 4 W 1030,2 10 -
22.03.2019 03:00:00 4,0 2,0 13 7 WSW - 10 -
22.03.2019 02:00:00 4,0 3,0 9 5 W - 10 -
22.03.2019 01:00:00 4,0 2,5 11 6 WSW 1031,2 10 -
22.03.2019 00:00:00 5,0 2,0 13 7 W - 10 -
21.03.2019 23:00:00 5,0 3,0 11 6 WSW - 10 -
21.03.2019 22:00:00 6,0 1,9 5 3 W 1031,0 10 -
21.03.2019 21:00:00 7,0 1,0 11 6 WSW - 10 -
21.03.2019 20:00:00 8,0 0,0 8 4 S - 10 -
21.03.2019 19:00:00 11,2 -1,9 8 4 SE 1030,1 16 -
21.03.2019 18:00:00 13,0 -2,0 2 1 ENE - 10 -
21.03.2019 17:00:00 13,0 -2,0 4 2 NE - 10 -
21.03.2019 16:00:00 14,0 -1,6 4 2 NNE 1030,6 16 60
21.03.2019 15:00:00 14,0 -1,0 2 1 - - 10 -
21.03.2019 14:00:00 13,0 1,0 9 5 ENE - 10 -
21.03.2019 13:00:00 12,6 2,2 8 4 N 1032,4 16 60
21.03.2019 12:00:00 12,0 3,0 8 4 NNW - 10 -
21.03.2019 11:00:00 11,0 4,0 13 7 WNW - 10 -
21.03.2019 10:00:00 9,0 3,2 16 9 W 1032,9 16 60
21.03.2019 09:00:00 7,0 3,0 21 11 W - 10 -
21.03.2019 08:00:00 5,0 2,0 18 10 W - 10 -
21.03.2019 07:00:00 2,2 1,3 15 8 W 1032,0 20 -
21.03.2019 06:00:00 2,0 1,0 15 8 W - 10 -
21.03.2019 05:00:00 2,0 1,0 15 8 W - 10 -
21.03.2019 04:00:00 2,0 0,5 13 7 W 1031,4 20 -
21.03.2019 03:00:00 2,0 0,0 15 8 W - 10 -
21.03.2019 02:00:00 2,0 0,0 16 9 W - 10 -
21.03.2019 01:00:00 2,4 0,8 13 7 W 1031,4 20 -
21.03.2019 00:00:00 2,0 0,0 11 6 W - 10 -
20.03.2019 23:00:00 3,0 1,0 11 6 W - 10 -
20.03.2019 22:00:00 4,2 1,4 13 7 W 1030,3 20 -
20.03.2019 21:00:00 5,0 1,0 9 5 W - 10 -
20.03.2019 20:00:00 8,0 2,0 13 7 WNW - 10 -

tt = temperature
td = dewpoint
ff = wind speed
dd = wind direction
ppp = reduced air pressure
vv = visibility
sd = sunshine duration

Next stations